GW7271 Weather Reports


time (UTC)temp
F
wind
direction
speed
knots
gust
knots
rain 1hr
in
rain 24hr
in
rain mn
in
humidity
%
barometer
mb
20260502221135 50 294 1.7 5.2 0.00 0.00 0.00 37 1015.7
20260502220632 51 280 9.6 13.9 0.00 0.00 0.00 36 1015.8
20260502220128 50 274 7.8 11.3 0.00 0.00 0.00 38 1015.8
20260502215625 50 205 5.2 7.8 0.00 0.00 0.00 38 1015.8
20260502215122 49 196 9.6 11.3 0.00 0.00 0.00 39 1015.9
20260502214619 51 289 6.1 15.6 0.00 0.00 0.00 36 1015.7
20260502214116 50 288 4.3 8.7 0.00 0.00 0.00 38 1015.8
20260502213614 50 282 7.0 8.7 0.00 0.00 0.00 37 1015.8
20260502213110 50 260 7.8 8.7 0.00 0.00 0.00 38 1015.9
20260502212610 50 292 2.6 7.0 0.00 0.00 0.00 37 1015.8
20260502212107 50 310 4.3 7.8 0.00 0.00 0.00 37 1015.8
20260502211602 50 275 5.2 7.8 0.00 0.00 0.00 38 1015.7
20260502211059 49 311 1.7 7.0 0.00 0.00 0.00 39 1016.2
20260502210557 50 245 5.2 9.6 0.00 0.00 0.00 39 1016.1
20260502210054 49 277 1.7 5.2 0.00 0.00 0.00 40 1016.1
20260502205550 50 287 5.2 6.1 0.00 0.00 0.00 39 1015.9
20260502205047 49 225 3.5 7.0 0.00 0.00 0.00 40 1016.1
20260502204544 49 310 3.5 7.8 0.00 0.00 0.00 39 1016.2
20260502204042 49 245 6.1 11.3 0.00 0.00 0.00 37 1016.2
20260502203539 50 286 2.6 8.7 0.00 0.00 0.00 39 1016.3
20260502203036 49 228 4.3 7.0 0.00 0.00 0.00 42 1016.3
20260502202532 49 280 0.9 11.3 0.00 0.00 0.00 39 1016.4
20260502202030 49 262 5.2 8.7 0.00 0.00 0.00 40 1016.4
20260502201526 49 273 7.8 16.5 0.00 0.00 0.00 39 1016.5
20260502201022 49 237 9.6 11.3 0.00 0.00 0.00 39 1016.5
20260502200518 49 202 6.1 8.7 0.00 0.00 0.00 40 1016.4
20260502200016 49 191 5.2 8.7 0.00 0.00 0.00 41 1016.7
20260502195514 48 263 1.7 3.5 0.00 0.00 0.00 41 1016.8
20260502195009 48 237 7.8 11.3 0.00 0.00 0.00 40 1016.7
20260502194507 48 290 1.7 3.5 0.00 0.00 0.00 41 1016.9
20260502194002 48 284 3.5 6.1 0.00 0.00 0.00 40 1017.0
20260502193500 48 276 2.6 7.0 0.00 0.00 0.00 40 1017.0
20260502192955 48 287 4.3 7.8 0.00 0.00 0.00 39 1017.1
20260502192452 49 174 0.9 2.6 0.00 0.00 0.00 41 1017.2
20260502191949 49 238 4.3 7.8 0.00 0.00 0.00 41 1017.2
20260502191447 48 304 2.6 12.2 0.00 0.00 0.00 41 1017.2
20260502190944 47 319 3.5 6.1 0.00 0.00 0.00 42 1017.4
20260502190442 47 288 5.2 8.7 0.00 0.00 0.00 41 1017.4
20260502185938 47 271 3.5 7.0 0.00 0.00 0.00 43 1017.4
20260502185433 47 305 4.3 7.0 0.00 0.00 0.00 41 1017.8
20260502184931 48 318 2.6 5.2 0.00 0.00 0.00 40 1017.6
20260502184426 49 228 7.8 12.2 0.00 0.00 0.00 38 1017.4
20260502183922 47 286 3.5 7.8 0.00 0.00 0.00 45 1017.6
20260502183419 47 257 7.0 8.7 0.00 0.00 0.00 44 1017.7
20260502182914 46 288 4.3 5.2 0.00 0.00 0.00 42 1017.9
20260502182410 46 277 6.1 8.7 0.00 0.00 0.00 41 1017.9
20260502181906 47 274 3.5 5.2 0.00 0.00 0.00 40 1017.9
20260502181405 49 280 6.1 7.8 0.00 0.00 0.00 38 1017.9
20260502180903 48 314 0.9 6.1 0.00 0.00 0.00 39 1017.9
20260502180400 48 290 1.7 8.7 0.00 0.00 0.00 43 1017.8
20260502170318 45 308 7.8 8.7 0.00 0.00 0.00 44 1018.4
20260502164306 46 307 3.5 5.2 0.00 0.00 0.00 42 1018.5
20260502163802 45 246 5.2 9.6 0.00 0.00 0.00 42 1018.5
20260502163258 46 270 3.5 5.2 0.00 0.00 0.00 43 1018.7
20260502162755 48 106 0.9 3.5 0.00 0.00 0.00 41 1018.6
20260502162252 45 57 1.7 6.1 0.00 0.00 0.00 43 1018.5
20260502161749 44 329 3.5 6.1 0.00 0.00 0.00 45 1018.7
20260502161245 44 338 6.1 7.8 0.00 0.00 0.00 45 1018.9
20260502160744 44 253 4.3 6.1 0.00 0.00 0.00 47 1018.8
20260502160243 46 353 0.9 5.2 0.00 0.00 0.00 44 1018.6
20260502152212 45 293 5.2 7.0 0.00 0.00 0.00 45 1018.8
20260502151709 45 234 0.9 6.1 0.00 0.00 0.00 43 1018.7
20260502151206 44 124 0.9 11.3 0.00 0.00 0.00 45 1018.7
20260502150704 44 269 3.5 6.1 0.00 0.00 0.00 45 1018.7
20260502150200 43 151 1.7 3.5 0.00 0.00 0.00 49 1018.7
20260502140123 43 269 3.5 5.2 0.00 0.00 0.00 50 1018.7
20260502130548 41 334 1.7 2.6 0.00 0.00 0.00 61 1018.9
20260502123532 39 328 0.9 2.6 0.00 0.00 0.00 66 1019.0
20260502123028 38 37 0.9 1.7 0.00 0.00 0.00 70 1019.2
20260502122525 36 317 0.0 0.0 0.00 0.00 0.00 73 1019.1
20260502122022 36 341 0.9 1.7 0.00 0.00 0.00 74 1019.2
20260502121519 36 31 0.0 0.9 0.00 0.00 0.00 75 1019.2
20260502121017 35 355 0.9 1.7 0.00 0.00 0.00 75 1019.3
20260502120513 35 301 0.0 0.0 0.00 0.00 0.00 77 1019.1
20260502115508 34 302 0.0 1.7 0.00 0.00 0.00 80 1019.0
20260502115003 33 301 1.7 1.7 0.00 0.00 0.00 80 1019.2
20260502114500 33 264 1.7 3.5 0.00 0.00 0.00 81 1019.0
20260502113957 33 288 0.9 1.7 0.00 0.00 0.00 81 1019.3
20260502113455 33 288 1.7 2.6 0.00 0.00 0.00 82 1019.0
20260502112953 32 291 0.9 1.7 0.00 0.00 0.00 82 1019.0
20260502112450 32 337 0.9 0.9 0.00 0.00 0.00 82 1018.9
20260502111948 32 280 0.9 1.7 0.00 0.00 0.00 82 1019.0
20260502111445 32 278 1.7 1.7 0.00 0.00 0.00 83 1018.8
20260502110942 32 271 2.6 2.6 0.00 0.00 0.00 84 1018.8
20260502110440 31 284 0.9 1.7 0.00 0.00 0.00 85 1018.9
20260502105937 31 289 0.9 0.9 0.00 0.00 0.00 84 1019.0
20260502105434 31 278 0.0 0.9 0.00 0.00 0.00 83 1018.7
20260502104932 31 303 0.9 0.9 0.00 0.00 0.00 83 1018.9
20260502104429 32 282 0.0 1.7 0.00 0.00 0.00 82 1018.8
20260502103926 32 280 0.9 2.6 0.00 0.00 0.00 81 1018.8
20260502103424 32 273 1.7 2.6 0.00 0.00 0.00 81 1018.8
20260502102921 32 278 0.9 2.6 0.00 0.00 0.00 82 1018.8
20260502102417 32 276 0.9 1.7 0.00 0.00 0.00 82 1018.7
20260502101915 32 276 0.9 1.7 0.00 0.00 0.00 81 1018.7
20260502101413 32 277 1.7 1.7 0.00 0.00 0.00 81 1018.7
20260502100911 32 291 0.9 2.6 0.00 0.00 0.00 80 1018.6
20260502100410 32 262 1.7 1.7 0.00 0.00 0.00 80 1018.7
20260502091343 33 280 0.0 0.9 0.00 0.00 0.00 79 1018.3
20260502090841 33 280 0.0 0.0 0.00 0.00 0.00 78 1018.0
20260502090338 33 280 0.9 0.9 0.00 0.00 0.00 78 1018.2
20260502071233 34 268 1.7 1.7 0.00 0.00 0.00 71 1018.0
20260502070731 35 282 0.9 0.9 0.00 0.00 0.00 71 1018.0
20260502070229 34 283 0.9 2.6 0.00 0.00 0.00 71 1018.1
20260502065727 35 289 0.9 1.7 0.00 0.00 0.00 71 1018.0
20260502065224 35 300 0.9 0.9 0.00 0.00 0.00 70 1018.0
20260502064723 35 301 0.0 0.0 0.00 0.00 0.00 69 1018.1
20260502064220 35 306 0.9 0.9 0.00 0.00 0.00 69 1018.3
20260502063718 36 306 0.9 0.9 0.00 0.00 0.00 68 1018.0
20260502063215 36 285 0.9 0.9 0.00 0.00 0.00 67 1018.2
20260502062712 36 308 0.9 1.7 0.00 0.00 0.00 66 1018.3
20260502062210 36 298 0.0 0.9 0.00 0.00 0.00 68 1018.4
20260502061708 37 298 0.0 0.9 0.00 0.00 0.00 67 1018.2
20260502061205 37 297 0.0 1.7 0.00 0.00 0.00 65 1018.1
20260502060700 37 290 0.9 0.9 0.00 0.00 0.00 64 1018.2
20260502060157 37 316 0.9 0.9 0.00 0.00 0.00 63 1018.2
20260502055655 37 312 0.9 0.9 0.00 0.00 0.00 64 1018.2
20260502055152 37 294 0.9 0.9 0.00 0.00 0.00 63 1018.1
20260502054652 37 291 0.9 1.7 0.00 0.00 0.00 62 1018.0
20260502054148 37 307 0.9 0.9 0.00 0.00 0.00 64 1018.3
20260502053646 38 280 0.0 0.9 0.00 0.00 0.00 65 1018.3
20260502053142 38 308 0.0 0.9 0.00 0.00 0.00 63 1018.4
20260502052641 38 308 0.9 0.9 0.00 0.00 0.00 63 1018.2
20260502052139 38 308 0.0 0.9 0.00 0.00 0.00 61 1018.2
20260502051637 38 321 0.0 0.9 0.00 0.00 0.00 61 1018.3
20260502051134 38 305 0.0 0.9 0.00 0.00 0.00 61 1018.2
20260502050630 38 305 0.0 0.0 0.00 0.00 0.00 61 1018.2
20260502050127 38 302 0.0 0.0 0.00 0.00 0.00 60 1018.2
20260502045624 38 302 0.0 0.0 0.00 0.00 0.00 60 1017.9
20260502045121 38 303 0.0 0.0 0.00 0.00 0.00 58 1018.1
20260502044617 38 302 0.0 0.9 0.00 0.00 0.00 58 1018.2
20260502044114 38 302 0.0 1.7 0.00 0.00 0.00 61 1018.1
20260502043612 38 322 0.0 0.9 0.00 0.00 0.00 60 1018.1
20260502043108 37 325 0.9 0.9 0.00 0.00 0.00 60 1018.0
20260502042603 37 329 0.0 0.0 0.00 0.00 0.00 60 1017.9
20260502042100 37 341 0.0 0.9 0.00 0.00 0.00 59 1018.1
20260502041558 38 332 0.0 0.9 0.00 0.00 0.00 59 1017.8
20260502041055 38 307 0.0 1.7 0.00 0.00 0.00 58 1017.8
20260502040551 38 59 0.0 1.7 0.00 0.00 0.00 57 1017.8
20260502040049 39 28 0.0 0.0 0.00 0.00 0.00 57 1017.7
20260502035544 39 347 0.0 1.7 0.00 0.00 0.00 56 1017.8
20260502035042 39 337 1.7 2.6 0.00 0.00 0.00 55 1017.9
20260502034540 39 24 0.0 0.9 0.00 0.00 0.00 55 1017.7
20260502034038 39 42 0.0 0.9 0.00 0.00 0.00 54 1017.8
20260502033536 40 19 0.0 1.7 0.00 0.00 0.00 55 1017.6
20260502033033 40 351 0.9 1.7 0.00 0.00 0.00 54 1017.8
20260502032528 40 36 3.5 7.0 0.00 0.00 0.00 53 1017.8
20260502032026 40 35 0.9 2.6 0.00 0.00 0.00 53 1017.7
20260502031524 40 58 2.6 3.5 0.00 0.00 0.00 52 1017.8
20260502031021 40 9 0.0 0.9 0.00 0.00 0.00 54 1017.4
20260502030520 40 44 0.9 1.7 0.00 0.00 0.00 55 1017.7
20260502030018 40 24 0.9 0.9 0.00 0.00 0.00 54 1017.7
20260502025515 40 333 0.0 1.7 0.00 0.00 0.00 53 1017.7
20260502025013 40 22 0.0 0.9 0.00 0.00 0.00 53 1017.4
20260502024510 40 1 0.0 0.9 0.00 0.00 0.00 53 1017.6
20260502024008 40 346 1.7 1.7 0.00 0.00 0.00 56 1017.4
20260502023505 40 331 0.9 2.6 0.00 0.00 0.00 52 1017.6
20260502023002 41 7 0.0 0.9 0.00 0.00 0.00 54 1017.2
20260502022459 41 19 0.9 1.7 0.00 0.00 0.00 53 1017.4
20260502021956 41 35 0.9 0.9 0.00 0.00 0.00 53 1017.3
20260502021453 41 15 0.0 0.9 0.00 0.00 0.00 51 1017.3
20260502020950 41 48 1.7 2.6 0.00 0.00 0.00 51 1017.4
20260502020449 41 25 5.2 6.1 0.00 0.00 0.00 51 1017.1
20260502015944 41 352 1.7 2.6 0.00 0.00 0.00 52 1017.3
20260502015443 41 42 0.9 3.5 0.00 0.00 0.00 52 1017.2
20260502014939 41 225 0.9 2.6 0.00 0.00 0.00 51 1017.1
20260502014436 41 335 0.9 3.5 0.00 0.00 0.00 52 1017.0
20260502013932 41 14 0.0 0.9 0.00 0.00 0.00 52 1017.0
20260502013428 42 66 0.0 0.9 0.00 0.00 0.00 53 1016.9
20260502012924 42 346 0.9 0.9 0.00 0.00 0.00 52 1017.1
20260502012422 42 15 4.3 6.1 0.00 0.00 0.00 50 1017.1
20260502011920 42 18 0.0 2.6 0.00 0.00 0.00 52 1016.7
20260502011415 42 309 0.0 3.5 0.00 0.00 0.00 50 1016.8
20260502010913 42 271 0.0 1.7 0.00 0.00 0.00 50 1016.9
20260502010409 42 319 0.9 1.7 0.00 0.00 0.00 50 1016.8
20260502005906 42 24 0.0 1.7 0.00 0.00 0.00 51 1016.7
20260502005404 42 59 2.6 3.5 0.00 0.00 0.00 52 1016.6
20260502004901 42 34 1.7 2.6 0.00 0.00 0.00 51 1016.5
20260502004357 42 45 0.9 1.7 0.00 0.00 0.00 51 1016.5
20260502003855 43 51 2.6 2.6 0.00 0.00 0.00 49 1016.6
20260502003352 43 46 1.7 6.1 0.00 0.00 0.00 50 1016.4
20260502002848 43 37 5.2 7.0 0.00 0.00 0.00 48 1016.4
20260502002345 44 350 3.5 6.1 0.00 0.00 0.00 46 1016.3
20260502001843 44 353 0.0 0.9 0.00 0.00 0.00 48 1016.4
20260502001340 44 0 0.0 0.9 0.00 0.00 0.00 45 1016.0
20260502000837 44 39 2.6 2.6 0.00 0.00 0.00 45 1016.2
20260502000336 44 63 1.7 1.7 0.00 0.00 0.00 46 1016.0
20260501235832 44 312 3.5 5.2 0.00 0.00 0.00 44 1016.0
20260501235327 44 300 0.9 5.2 0.00 0.00 0.00 45 1016.0
20260501234823 44 280 1.7 5.2 0.00 0.00 0.00 46 1016.0
20260501234320 44 310 3.5 7.0 0.00 0.00 0.00 44 1016.0
20260501233819 44 275 1.7 7.0 0.00 0.00 0.00 45 1015.9
20260501233316 44 348 1.7 2.6 0.00 0.00 0.00 46 1015.9
20260501232811 44 291 0.9 3.5 0.00 0.00 0.00 46 1015.9
20260501232308 45 163 3.5 5.2 0.00 0.00 0.00 45 1015.8
20260501231806 45 287 4.3 5.2 0.00 0.00 0.00 45 1015.9
20260501231304 45 306 3.5 5.2 0.00 0.00 0.00 46 1015.8
20260501230802 45 289 0.0 0.0 0.00 0.00 0.00 47 1015.7
20260501230300 45 277 4.3 5.2 0.00 0.00 0.00 46 1015.7
20260501225757 45 267 1.7 2.6 0.00 0.00 0.00 47 1015.7
20260501225255 45 304 2.6 3.5 0.00 0.00 0.00 45 1015.7
20260501224751 45 303 1.7 5.2 0.00 0.00 0.00 45 1015.9
20260501224249 45 294 2.6 3.5 0.00 0.00 0.00 47 1015.7
20260501223744 45 271 2.6 5.2 0.00 0.00 0.00 47 1015.7
20260501223241 45 280 0.9 3.5 0.00 0.00 0.00 49 1015.6
20260501222737 45 296 1.7 2.6 0.00 0.00 0.00 48 1015.9
20260501222234 45 286 2.6 5.2 0.00 0.00 0.00 48 1015.6
20260501221731 45 273 4.3 5.2 0.00 0.00 0.00 47 1015.7